カタログに戻る

FREGAT DEB

運用中UNKNOWN
NORAD 49271·DEBRIS·🇷🇺 Russia

打ち上げ Jul 18, 2011 から Baikonur Cosmodrome

Loading…

次のパス (今後24時間)

TLE

最新Source: Space-Track

元期: Sep 13, 2026, 17:37 UTC

1 49271U 11037PF  26256.73444482  .00015379  00000-0  21697-1 0  9993
2 49271  51.6442  95.2041 0941670 119.1674 250.6712 12.44406137236066

AllMySatでFREGAT DEBをリアルタイム追跡

Download on the App Store